IRIDIUM 116 (43072 NORAD) Tracking and Keplerian Element Data

This shows tracking and keplerian element data for the satellite.

Feedback or suggestion? Click here.




ElementValue
Catalog43072
NameIRIDIUM 116
Epoch Orbit430
Epoch Day21.34904392
Epoch Year2018
RAAN164.5157
Inclination86.5286
Eccentricity0.0003368
Argument of Perigee106.6567
Mean Anonmoly253.5011
Mean Motion14.56969061
Decay Rate1.18E-06
L11 43072U 17083C 18021.34904392 .00000118 00000-0 21479-4 0 9998
L22 43072 86.5286 164.5157 0003368 106.6567 253.5011 14.56969061 4304

Live tracking and technical data element details for IRIDIUM 116 (NORAD 43072). IRIDIUM 116 can be tracked NOW for your location showing map with azimuth and elevation plus other details from your city location.

Track the satellite on the map from your city or location and see movement details for azimuth, elevation, latitude, longitude, range, height, and movement on the map or in text.







IsCatalogInMostPopularTable: catalog: 43072, numindb: 170
Update: records affected: 1



GetName: 43072 IRIDIUM 116

Hit Count: updated at: Sat, 15 Dec 2018 18:35:24 GMT